TimeCDT,TemperatureF,Dew PointF,Humidity,Sea Level PressureIn,VisibilityMPH,Wind Direction,Wind SpeedMPH,Gust SpeedMPH,PrecipitationIn,Events,Conditions,WindDirDegrees,DateUTC
12:53 AM,59.0,55.9,90,30.06,10.0,Calm,Calm,-,N/A,,Clear,0,2013-06-15 05:53:00
1:53 AM,57.9,55.9,93,30.04,10.0,Calm,Calm,-,N/A,,Clear,0,2013-06-15 06:53:00
2:53 AM,57.0,55.0,93,30.05,10.0,Calm,Calm,-,N/A,,Clear,0,2013-06-15 07:53:00
3:53 AM,55.9,54.0,93,30.09,10.0,Calm,Calm,-,N/A,,Clear,0,2013-06-15 08:53:00
4:53 AM,55.9,54.0,93,30.09,7.0,Calm,Calm,-,N/A,,Clear,0,2013-06-15 09:53:00
5:53 AM,57.0,55.0,93,30.09,7.0,Calm,Calm,-,N/A,,Clear,0,2013-06-15 10:53:00
6:53 AM,63.0,57.9,84,30.10,10.0,Calm,Calm,-,N/A,,Clear,0,2013-06-15 11:53:00
7:53 AM,69.1,59.0,70,30.10,10.0,Calm,Calm,-,N/A,,Clear,0,2013-06-15 12:53:00
8:53 AM,73.0,57.0,57,30.12,10.0,Variable,4.6,-,N/A,,Clear,0,2013-06-15 13:53:00
9:53 AM,75.0,57.0,53,30.12,10.0,SSW,8.1,-,N/A,,Clear,210,2013-06-15 14:53:00
10:53 AM,77.0,59.0,54,30.12,10.0,SSW,5.8,-,N/A,,Clear,200,2013-06-15 15:53:00
11:53 AM,75.9,59.0,56,30.12,10.0,SSW,4.6,-,N/A,,Scattered Clouds,210,2013-06-15 16:53:00
12:53 PM,78.1,60.1,54,30.11,10.0,Variable,6.9,-,N/A,,Scattered Clouds,0,2013-06-15 17:53:00
1:53 PM,79.0,60.1,52,30.09,10.0,Calm,Calm,-,N/A,,Scattered Clouds,0,2013-06-15 18:53:00
2:53 PM,79.0,60.1,52,30.07,10.0,Variable,5.8,-,N/A,,Partly Cloudy,0,2013-06-15 19:53:00
3:53 PM,79.0,60.1,52,30.07,10.0,SSE,3.5,-,N/A,,Partly Cloudy,160,2013-06-15 20:53:00
4:53 PM,80.1,61.0,52,30.07,10.0,Variable,4.6,-,N/A,,Clear,0,2013-06-15 21:53:00
5:53 PM,79.0,59.0,50,30.06,10.0,South,4.6,-,N/A,,Clear,190,2013-06-15 22:53:00
6:53 PM,77.0,62.1,60,30.05,10.0,Calm,Calm,-,N/A,,Clear,0,2013-06-15 23:53:00
7:53 PM,73.9,62.1,66,30.05,10.0,Calm,Calm,-,N/A,,Partly Cloudy,0,2013-06-16 00:53:00
8:53 PM,70.0,63.0,78,30.06,10.0,Calm,Calm,-,N/A,,Clear,0,2013-06-16 01:53:00
9:53 PM,66.9,62.1,84,30.09,10.0,Calm,Calm,-,N/A,,Clear,0,2013-06-16 02:53:00
10:53 PM,68.0,62.1,81,30.07,10.0,Calm,Calm,-,N/A,,Clear,0,2013-06-16 03:53:00
11:53 PM,68.0,61.0,78,30.08,10.0,Calm,Calm,-,N/A,,Clear,0,2013-06-16 04:53:00